Hastings, NE

12:28 AM CDT on June 26, 2017 (GMT -0500)
Hastings Municipal

Weather History for KHSI - April, 2013

Change the Weather History Date:

Wednesday, April 24, 2013

  Actual Average Record
Temperature  
Mean Temperature 42 °F 54 °F  
Max Temperature 60 °F 66 °F 94 °F (2012)
Min Temperature 24 °F 42 °F 21 °F (1956)
Degree Days  
Heating Degree Days 23 12  
Month to date heating degree days 554 370  
Since 1 July heating degree days 6063 5777  
Cooling Degree Days 0 0  
Month to date cooling degree days 0 0  
Year to date cooling degree days 0 0  
Moisture  
Dew Point 25 °F    
Average Humidity 56    
Maximum Humidity 88    
Minimum Humidity 23    
Precipitation  
Precipitation T in 0.10 in 2.57 in (2007)
Month to date precipitation 2.63 1.85  
Year to date precipitation 6.10 4.54  
Snow  
Snow 0.00 in 0.00 in 3.00 in (1931)
Month to date snowfall 3.7 1.1  
Since 1 July snowfall 35.4 28.7  
Snow Depth 0.00 in    
Sea Level Pressure  
Sea Level Pressure 30.19 in    
Wind  
Wind Speed 10 mph (West)    
Max Wind Speed 31 mph    
Max Gust Speed 44 mph    
Visibility 10 miles    
Events Rain    
T = Trace of Precipitation, MM = Missing Value Source: NWS Daily Summary

Daily Weather History Graph

Daily Weather History Graph

Search for Another Location

Airport or City:

Trip Planner

Search our weather history database for the weather conditions in past years. The results will help you decide how hot, cold, wet, or windy it might be!

Date:

Astronomy

Apr. 24, 2013 Rise Set
Actual Time 6:41 AM CDT 8:22 PM CDT
Civil Twilight 6:12 AM CDT 8:51 PM CDT
Nautical Twilight 5:37 AM CDT 9:27 PM CDT
Astronomical Twilight 4:59 AM CDT 10:04 PM CDT
Moon 7:27 PM CDT (4/24) 5:46 AM CDT (4/24)
Length of Visible Light 14h 39m
Length of Day
13h 41m
Waxing Gibbous, 98% of the Moon is Illuminated
Apr 24
Waxing Gibbous
Apr 25
Full
May 2
Last Quarter
May 9
New
May 17
First Quarter

Hourly Weather History & Observations

Time (CDT) Temp. Windchill Dew Point Humidity Pressure Visibility Wind Dir Wind Speed Gust Speed Precip Events Conditions
12:53 AM 26.1 °F 21.9 °F 23.0 °F 88% 30.27 in 10.0 mi WSW 3.5 mph - N/A   Clear
1:53 AM 26.1 °F 21.9 °F 21.9 °F 84% 30.27 in 10.0 mi WSW 3.5 mph - N/A   Clear
2:53 AM 26.1 °F 20.5 °F 21.9 °F 84% 30.25 in 10.0 mi WSW 4.6 mph - N/A   Clear
3:53 AM 25.0 °F 19.3 °F 21.9 °F 88% 30.25 in 10.0 mi WSW 4.6 mph - N/A   Clear
4:53 AM 26.6 °F 20.0 °F 21.2 °F 80% 30.17 in 10.0 mi WSW 5.8 mph - N/A   Clear
5:53 AM 25.0 °F 20.7 °F 19.9 °F 81% 30.22 in 10.0 mi SW 3.5 mph - N/A   Clear
6:53 AM 25.0 °F 18.1 °F 19.9 °F 81% 30.22 in 10.0 mi SW 5.8 mph - N/A   Clear
7:53 AM 28.0 °F 22.8 °F 21.9 °F 78% 30.22 in 10.0 mi SW 4.6 mph - N/A   Clear
8:53 AM 33.1 °F 25.5 °F 25.0 °F 72% 30.22 in 10.0 mi SW 9.2 mph - N/A   Clear
9:53 AM 37.9 °F 30.9 °F 26.1 °F 62% 30.21 in 10.0 mi SW 10.4 mph 17.3 mph N/A   Clear
10:53 AM 44.1 °F 39.5 °F 28.0 °F 53% 30.19 in 10.0 mi SW 8.1 mph - N/A   Clear
11:53 AM 48.0 °F - 27.0 °F 44% 30.18 in 10.0 mi WSW 10.4 mph - N/A   Clear
12:53 PM 52.0 °F - 27.0 °F 38% 30.16 in 10.0 mi West 17.3 mph 25.3 mph N/A   Clear
1:53 PM 55.0 °F - 23.0 °F 29% 30.14 in 10.0 mi WNW 21.9 mph 29.9 mph N/A   Clear
2:53 PM 57.0 °F - 21.9 °F 26% 30.12 in 10.0 mi West 21.9 mph 31.1 mph N/A   Clear
3:53 PM 57.9 °F - 19.0 °F 22% 30.10 in 10.0 mi WNW 17.3 mph 21.9 mph N/A   Clear
4:53 PM 57.0 °F - 23.0 °F 27% 30.10 in 10.0 mi NW 19.6 mph 25.3 mph N/A   Overcast
5:53 PM 53.1 °F - 26.1 °F 35% 30.14 in 10.0 mi WNW 23.0 mph 40.3 mph N/A   Overcast
6:43 PM 50.0 °F - 32.0 °F 50% 30.13 in 10.0 mi NNW 19.6 mph 31.1 mph 0.00 in   Overcast
6:53 PM 51.1 °F - 33.1 °F 50% 30.17 in 10.0 mi NNW 23.0 mph 29.9 mph 0.00 in Rain Light Rain
7:53 PM 46.9 °F - 33.1 °F 59% 30.18 in 10.0 mi NNW 10.4 mph - 0.00 in   Clear
8:53 PM 41.0 °F 37.1 °F 33.1 °F 73% 30.21 in 10.0 mi North 5.8 mph - N/A   Clear
9:53 PM 39.0 °F 35.7 °F 30.9 °F 73% 30.24 in 10.0 mi NNW 4.6 mph - N/A   Clear
10:53 PM 36.0 °F 30.3 °F 28.9 °F 76% 30.26 in 10.0 mi NNW 6.9 mph - N/A   Clear
11:53 PM 36.0 °F - 28.0 °F 73% 30.25 in 10.0 mi Calm Calm - N/A   Clear